Skip Page Navigation
NASA JPL Caltech
NASA Logo - Jet Propulsion Laboratory + View the NASA Portal
+ Center for Near-Earth Object Studies
JPL Home Earth Solar System Stars & Galaxies Technology
JPL Solar System Dynamics
BODIES ORBITS EPHEMERIDES TOOLS PHYSICAL DATA DISCOVERY FAQ SITE MAP
JPL Small-Body Database Browser
Search: [ help ]  
410064 (2007 BD73)
Classification: Main-belt Asteroid          SPK-ID: 2410064
Ephemeris | Orbit Diagram | Orbital Elements | Mission Design | Physical Parameters | Discovery Circumstances ]

[ hide orbit diagram ]

For accurate long-term ephemerides, please instead use our Horizons system.This orbit viewer was implemented using two-body methods, and hence should not be used for determining accurate long-term trajectories (over several years or decades) or planetary encounter circumstances.


[ revert to old Java-based viewer ]

Orbital Elements at Epoch 2459000.5 (2020-May-31.0) TDB
Reference: JPL 11 (heliocentric ecliptic J2000)
 Element Value Uncertainty (1-sigma)   Units 
e .3484947863115765 2.7988e-07  
a 2.593267888805446 8.8924e-08 au
q 1.689527550047518 7.7933e-07 au
i 30.45648856052613 1.9586e-05 deg
node 93.40207160213771 2.3635e-05 deg
peri 61.61174474084083 5.1536e-05 deg
M 62.33273359882352 7.5963e-05 deg
tp 2458736.391016933306
(2019-Sep-09.89101693)
0.00030918 TDB
period 1525.349979289283
4.18
7.8457e-05
2.148e-07
d
yr
n .2360114104225034 1.2139e-08 deg/d
Q 3.497008227563373 1.1991e-07 au
  Orbit Determination Parameters
   # obs. used (total)      128  
   data-arc span      5771 days (15.80 yr)  
   first obs. used      2003-04-06  
   last obs. used      2019-01-23  
   planetary ephem.      DE431  
   SB-pert. ephem.      SB431-N16  
   condition code      0  
   norm. resid. RMS      .57101  
   source      ORB  
   producer      Otto Matic  
   solution date      2019-Jul-14 10:09:02  

Additional Information
 Earth MOID = .842819 au 
 Jupiter MOID = 2.13244 au 
 T_jup = 3.147 
[ hide covariance matrix ]
Orbital Elements at Epoch 2456778.5 (2014-May-01.0) TDB
Reference: JPL 11 (heliocentric ecliptic J2000)
 Element Value Uncertainty (1-sigma)   Units 
e .3491394154363049 2.7935e-07  
q 1.686723617790602 7.8005e-07 au
tp 2457211.830631493382
(2015-Jul-08.33063149)
0.00023511 TDB
node 93.43264967521992 2.3639e-05 deg
peri 61.56325585059243 5.1573e-05 deg
i 30.46640364539868 1.9585e-05 deg
  Orbit Determination Parameters
   # obs. used (total)      128  
   data-arc span      5771 days (15.80 yr)  
   first obs. used      2003-04-06  
   last obs. used      2019-01-23  
   planetary ephem.      DE431  
   SB-pert. ephem.      SB431-N16  
   condition code      0  
   norm. resid. RMS      .57101  
   source      ORB  
   producer      Otto Matic  
   solution date      2019-Jul-14 10:09:02  

Additional Information
 Jupiter MOID = 2.13244 au 
 T_jup = 3.147 
Orbit Covariance (6×6)
  e q tp node peri i
e 7.803381216228942E-14 -2.178055468759363E-13 -4.435015599923019E-11 1.888382779749335E-12 -3.066846144476572E-12 -2.460960003258719E-12
q -2.178055468759363E-13 6.084714033820964E-13 1.273213581028498E-10 -5.296597720251653E-12 9.499836135949286E-12 6.941234685810766E-12
tp -4.435015599923019E-11 1.273213581028498E-10 5.527646379545966E-8 -1.033581723984675E-9 9.741273092863213E-9 1.785019291372873E-9
node 1.888382779749335E-12 -5.296597720251653E-12 -1.033581723984675E-9 5.588025494344916E-10 -5.022469566028532E-10 -3.795655740746983E-10
peri -3.066846144476572E-12 9.499836135949286E-12 9.741273092863213E-9 -5.022469566028532E-10 2.659770204083242E-9 4.730836184753852E-10
i -2.460960003258719E-12 6.941234685810766E-12 1.785019291372873E-9 -3.795655740746983E-10 4.730836184753852E-10 3.835657738882566E-10

Ephemeris | Orbit Diagram | Orbital Elements | Mission Design | Physical Parameters | Discovery Circumstances ]

Physical Parameter Table
Parameter Symbol Value Units Sigma Reference Notes
absolute magnitude H 16.6   n/a MPO472140  

410064 (2007 BD73)          Discovered 2007-Jan-28 by Lowe, A. at Mayhill
Reference: Last Updated: 2014-10-09
Ephemeris | Orbit Diagram | Orbital Elements | Mission Design | Physical Parameters | Discovery Circumstances ]
ABOUT SSD CREDITS/AWARDS PRIVACY/COPYRIGHT GLOSSARY LINKS
FirstGov 2020-Oct-24 08:59 UT
(server date/time)  
NASA Home Page
Site Manager:   Ryan S. Park
Webmaster  Alan B. Chamberlin